星链-36493(STARLINK-36493)

导读

STARLINK-36493是美国SpaceX公司星链星座的一员,于2026年1月14日发射升空,部署于近地轨道。星链星座旨在为全球,尤其偏远无网络覆盖地区提供高速宽带互联网服务,STARLINK-36493的入轨将进一步扩充星链网络容量,提升覆盖范围与服务稳定性,助力星链全球互联目标推进。

Basic Information
目录编号:
67456
目录名称:
STARLINK-36493
国际标识:
2026-008M
轨道中心:
EARTH
卫星名称:
星链-36493
卫星全名:
星链-36493(STARLINK-36493)
卫星状态:
在轨 (已飞行233 天)
发射日期:
2026-01-14 UTC
国别 :
美国 (US)
星等 :
--
Orbit Information
数据来源 国际轨道数据 AOE轨道数据
星历时间 2026-09-04T14:11:48+0800
9小时前
查看轨道信息
2026-09-02T08:00:00+0800
2天前
查看轨道信息
半长轴 6861.124km 6861.205km
偏心率 0.0001537 0.0001826
轨道倾角 43.003° 43.002°
近地点辐角 240.302° 262.139°
升交点赤经 276.617° 289.376°
平近点角 119.768° 264.916°
近地点 481.932km 481.815km
远地点 484.042km 484.321km
周期 94.265分钟 94.267分钟
每日圈数 15.27601 15.275739
Detailed Information
固有亮度:
5
最大亮度:
2.5
卫星平台:
Starlink V1.0
覆盖范围:
全球
运营商:
太空探索技术公司
运营商所在国:
美国
制造商(研发单位):
太空探索技术公司
制造商所在国:
美国
使用方式:
暂无
Satellite Introduction
Starlink 计划是 SpaceX 推出的全球卫星互联网项目,通过发射低轨道卫星,为全球尤其是偏远地区提供高速、低延迟的互联网服务。自 2019 年起,Starlink 已部署数千颗卫星,旨在缩小全球数字鸿沟,推动互联网普及。该项目还为军事、航空等行业提供通信支持,带来广泛经济效益。
2D Orbit Map
3D Orbit Map
Orbit Altitude Analysis Chart
Orbit Inclination Analysis Chart
Orbit Comprehensive Analysis Chart
View Comprehensive Chart
Conjunction Data List
Event ID Objects TCA Miss Dist (km) Collision Risk Probability Collision Risk Index (CRI) Action
CDM_260906-224505-684206-745621
2026-09-06T
22:45:05+0000
0.250 km
中距离
4.990172E-4 高风险 0.89
CDM_260906-075005-684206-745621
2026-09-06T
07:50:38+0000
0.836 km
远距离
3.176058E-5 中风险 0.65
CDM_260906-092405-684206-745621
2026-09-06T
09:24:47+0000
1.975 km
极远距离
1.984154E-6 低风险 0.41
CDM_260905-101605-306606-745621
2026-09-05T
10:16:34+0000
2.377 km
极远距离
1.870889E-6 低风险 0.4
CDM_260906-061605-684206-745621
2026-09-06T
06:16:29+0000
2.160 km
极远距离
1.608248E-6 低风险 0.39
CDM_260906-211005-684206-745621
2026-09-06T
21:10:56+0000
2.265 km
极远距离
1.454744E-6 低风险 0.38
CDM_260907-001905-684206-745621
2026-09-07T
00:19:15+0000
2.311 km
极远距离
1.397838E-6 低风险 0.38